This is the latest recevied weather packets stored in our database for station/object KC3DGM. If no packets are shown the sender has not sent any weather packets the latest 1 day(s).
| Time | Temp. | Humidity | Pressure | Rain* | Wind** | Luminosity | Snow |
|---|---|---|---|---|---|---|---|
| 1778034667 | 10.56° C | 99% | 980 hPa | 1.27 mm | - | 0 W/m² | - |
| 1778034364 | 10.56° C | 98% | 980.1 hPa | 1.78 mm | - | 0 W/m² | - |
| 1778034062 | 10.56° C | 98% | 980 hPa | 1.78 mm | - | 0 W/m² | - |
| 1778033759 | 10.56° C | 98% | 980 hPa | 1.27 mm | - | 0 W/m² | - |
| 1778033456 | 10.56° C | 98% | 980.2 hPa | 1.27 mm | - | 0 W/m² | - |
| 1778033153 | 10.56° C | 98% | 980 hPa | 1.78 mm | - | 0 W/m² | - |
| 1778032851 | 10.56° C | 98% | 980.1 hPa | 1.78 mm | - | 0 W/m² | - |
| 1778032548 | 10.56° C | 98% | 980.2 hPa | 1.27 mm | - | 0 W/m² | - |
| 1778032245 | 10.56° C | 98% | 980.1 hPa | 1.78 mm | - | 0 W/m² | - |
| 1778031943 | 10.56° C | 98% | 980 hPa | 3.05 mm | - | 0 W/m² | - |
| 1778031638 | 10.56° C | 98% | 980.1 hPa | 3.05 mm | - | 0 W/m² | - |
| 1778031033 | 10.56° C | 97% | 979.9 hPa | 6.1 mm | - | 0 W/m² | - |
| 1778030729 | 10.56° C | 97% | 980.4 hPa | 7.87 mm | - | 0 W/m² | - |
| 1778030426 | 10.56° C | 97% | 980.2 hPa | 7.87 mm | - | 0 W/m² | - |
| 1778030124 | 10.56° C | 97% | 980.9 hPa | 6.1 mm | - | 0 W/m² | - |
| 1778029820 | 11.11° C | 96% | 980.5 hPa | 6.1 mm | - | 0 W/m² | - |
| 1778028913 | 11.67° C | 96% | 980.2 hPa | 0 mm | - | 0 W/m² | - |
| 1778027091 | 12.78° C | 97% | 979.4 hPa | 0 mm | - | 0 W/m² | - |
| 1778026786 | 12.78° C | 97% | 979.3 hPa | 0 mm | - | 0 W/m² | - |
| 1778026181 | 13.33° C | 98% | 979.3 hPa | 0 mm | - | 0 W/m² | - |
| 1778024970 | 13.33° C | 97% | 979 hPa | 0 mm | - | 5 W/m² | - |
| 1778024365 | 13.89° C | 97% | 979.4 hPa | 0 mm | - | 6 W/m² | - |
| 1778023457 | 13.89° C | 97% | 979.6 hPa | 0 mm | - | 2 W/m² | - |
| 1778021335 | 14.44° C | 95% | 979.6 hPa | 0 mm | - | 18 W/m² | - |
| 1778021033 | 14.44° C | 95% | 979.3 hPa | 0 mm | - | 18 W/m² | - |
* Rain latest hour (hover to see other rain measurements)
** Current wind speed in m/s (hover to see current wind gust speed)